Tracking 28790 objects as of 19-Apr-2024
HD Live streaming from Space Station
objects crossing your sky now

FENGYUN 1C DEB

Track FENGYUN 1C DEB now!
10-day predictions


NORAD ID: 29929
Int'l Code: 1999-025JB
Perigee: 812.8 km
Apogee: 1,015.3 km
Inclination: 98.6 °
Period: 103.1 minutes
Semi major axis: 7285 km
RCS: 0.0297 m2 (small)
Launch date: May 10, 1999
Source: People's Republic of China (PRC)
Launch site: Taiyaun Space Center, China (TSC)

Note: This is SATELLITE DEBRIS
Your satellite tracking list
Your tracking list is empty




NASA's NSSDC Master Catalog

Two Line Element Set (TLE):
1 29929U 99025JB  24109.84783609  .00007686  00000-0  51752-2 0  9996
2 29929  98.6109  58.0601 0138973  59.2903   0.5703 13.96217460875256
Source of the keplerian elements: AFSPC